Temp
14 14 14 14 14 13 12 11 11 11 10 10 10 10 10 11 11 11 10 9 9 9 9 8 9 9 9 9 10 9 9 9 9 9 9 9 9 8 8 8 8 9 9 9 9 9 9 9 9
14 14 14 13 13 13 12 11 11 11 11 10 11 11 10 11 11 10 10 10 9 9 9 9 9 9 9 10 10 9 9 9 9 9 9 8 8 8 8 8 8 9 9 9 9 9 9 8 8
14 14 14 13 13 12 12 12 12 12 11 10 10 11 11 11 10 10 10 10 9 9 9 9 9 9 9 10 10 9 9 9 9 9 9 8 8 8 7 8 8 8 9 9 9 9 9 9 9
14 14 14 13 12 12 12 12 12 12 12 11 10 11 11 11 11 10 10 10 10 9 9 9 9 9 9 10 9 9 9 9 9 8 8 8 8 8 8 8 8 8 9 9 9 9 9 8 8
15 15 14 13 12 12 12 12 12 12 12 12 11 11 11 10 10 10 10 10 10 9 9 9 9 9 9 9 9 9 9 9 9 8 8 8 8 8 8 8 8 8 8 9 9 9 9 9 9
15 15 14 13 13 12 12 12 12 12 12 12 12 11 11 10 10 10 10 10 10 10 10 10 9 9 9 9 9 8 8 8 8 8 8 8 7 7 8 8 8 8 8 8 8 9 9 9 9
15 14 14 14 13 13 12 12 12 12 12 12 12 12 11 11 10 10 10 10 10 10 10 9 9 9 9 9 8 8 8 8 8 8 8 8 7 7 7 8 8 8 8 8 8 8 8 8 8
15 15 14 15 14 13 12 12 11 11 12 12 11 11 12 11 11 10 10 10 10 10 10 9 9 8 8 8 8 8 8 8 8 8 8 7 7 7 7 7 7 7 8 8 8 8 8 8 8
15 15 15 15 14 14 13 12 12 12 12 12 11 11 11 11 11 11 11 11 10 10 9 9 9 9 9 9 9 9 9 8 8 8 7 7 7 7 7 7 7 7 7 8 8 8 7 8 8
16 16 16 16 15 14 14 13 13 13 12 12 12 12 11 11 11 10 10 10 10 10 9 9 9 9 9 9 9 8 8 8 8 8 8 7 7 7 7 7 7 7 7 7 7 7 7 7 7
16 16 16 16 15 15 15 15 14 13 13 13 12 12 11 11 11 10 10 10 9 10 10 9 9 9 9 8 8 8 8 8 8 8 7 7 7 7 7 7 7 7 7 7 7 7 7 7 7
16 16 16 16 15 15 15 15 15 14 13 13 12 11 11 11 10 10 10 10 10 10 10 9 9 8 9 8 8 8 8 8 8 7 7 7 8 8 7 7 7 7 7 7 7 7 7 7 7
16 16 16 16 15 15 15 15 15 14 14 13 12 11 11 11 11 11 10 10 10 10 10 9 9 9 8 7 7 8 9 8 8 7 7 7 8 8 8 8 7 7 7 7 7 7 7 7 7
16 16 16 16 15 15 15 16 15 15 14 14 12 12 11 11 11 11 11 11 10 10 10 10 9 9 8 7 7 8 8 8 8 7 7 8 8 8 8 8 8 7 8 7 7 7 7 7 7
17 16 16 16 15 15 15 15 15 15 14 14 13 12 12 11 11 10 10 10 10 10 10 10 10 9 9 8 8 9 9 8 8 8 8 8 8 8 8 8 8 7 7 7 7 7 7 8 7
16 16 15 16 16 15 15 15 15 15 15 14 13 13 12 11 11 11 10 10 10 10 10 10 10 10 9 9 9 9 9 8 8 8 8 8 8 8 8 8 8 8 8 7 7 7 7 7 7
16 16 16 16 16 15 15 15 15 15 15 14 13 12 12 12 11 11 11 11 11 11 11 10 10 10 10 9 9 9 9 8 8 7 7 8 7 7 7 7 8 8 8 8 8 7 8 8 7
16 16 17 16 16 16 16 16 15 16 15 14 14 13 12 12 12 13 12 11 11 11 11 11 10 10 9 9 9 8 8 8 8 7 7 8 8 8 8 8 8 8 8 8 8 8 8 8 8
16 17 17 17 17 17 17 16 16 15 16 15 15 13 13 13 13 13 13 13 12 11 11 11 10 10 9 9 9 9 8 9 9 8 8 8 8 8 8 8 8 8 8 8 9 8 9 9 8
17 16 16 17 17 18 18 18 16 16 15 15 14 14 14 14 13 13 14 13 13 12 11 11 10 10 9 9 9 9 9 8 8 9 9 8 8 9 8 9 9 9 8 8 8 8 9 8 8
16 16 17 17 18 18 18 18 18 18 16 15 15 14 13 13 13 13 13 12 12 12 11 10 10 10 10 9 10 9 9 9 9 9 10 9 10 10 10 10 9 9 9 9 8 8 9 9 9
16 16 17 17 18 17 17 18 19 19 18 17 15 15 13 13 12 13 12 12 12 12 11 10 10 10 10 10 10 10 9 10 9 9 9 10 10 10 11 11 10 9 9 9 9 9 9 9 9
16 17 17 17 18 17 17 16 19 19 19 18 17 15 14 13 12 12 13 13 12 12 11 11 10 10 10 10 9 9 10 10 9 8 8 9 10 10 10 10 10 9 9 9 9 9 9 9 9
16 17 17 18 17 17 16 16 18 19 19 18 17 16 14 13 12 13 13 12 12 12 11 10 10 10 9 10 9 9 9 10 10 9 9 9 9 9 9 10 10 10 10 9 9 9 8 8 9
16 17 18 18 18 19 16 15 18 19 19 18 17 16 15 14 13 13 13 12 12 12 11 11 10 9 9 10 10 9 9 9 9 9 8 9 9 9 9 9 9 9 9 9 9 9 9 9 8
17 17 18 17 18 18 16 17 18 19 18 18 17 17 16 15 14 13 13 12 12 12 11 11 10 9 9 9 9 10 9 8 9 8 8 8 8 8 8 9 9 9 9 9 9 9 9 8 9
16 16 17 17 16 16 16 17 18 19 18 18 17 16 15 15 15 14 13 12 13 12 11 11 10 10 9 9 10 9 9 9 9 9 8 9 8 9 8 8 8 8 8 9 9 8 8 8 8
16 17 17 17 17 17 16 15 18 19 18 17 16 15 15 15 14 13 12 12 12 11 11 11 11 10 11 10 9 9 9 10 9 9 9 8 8 8 8 8 9 9 9 9 9 9 9 7 7
16 16 16 17 17 19 18 18 19 18 18 17 16 15 15 15 14 13 13 12 12 12 12 11 10 11 10 10 9 9 9 9 9 8 8 8 8 8 9 9 9 9 9 9 9 9 9 9 8
15 16 16 17 15 15 16 18 19 18 18 18 16 14 14 14 14 13 13 12 11 11 11 11 11 10 10 9 9 9 9 9 9 9 8 8 8 8 9 9 9 9 9 9 9 9 8 9 9
Height
3159 3158 3157 3155 3158 3155 3153 3156 3155 3155 3156 3156 3157 3158 3161 3161 3162 3166 3165 3167 3170 3173 3175 3177 3179 3182 3183 3184 3186 3188 3189 3190 3191 3191 3192 3193 3193 3192 3194 3194 3195 3195 3196 3196 3198 3199 3200 3201 3201
3161 3160 3159 3157 3158 3156 3158 3158 3157 3157 3157 3158 3159 3160 3162 3163 3163 3164 3167 3169 3172 3176 3178 3179 3181 3183 3185 3187 3189 3190 3191 3191 3192 3193 3194 3195 3194 3194 3194 3196 3196 3197 3198 3199 3200 3200 3201 3202 3203
3164 3163 3162 3160 3160 3160 3161 3160 3158 3158 3158 3159 3161 3162 3163 3164 3165 3167 3169 3172 3174 3177 3179 3180 3183 3185 3187 3189 3190 3191 3192 3193 3194 3195 3195 3195 3195 3195 3196 3197 3198 3198 3199 3200 3201 3202 3203 3204 3205
3167 3166 3165 3164 3163 3163 3163 3162 3160 3160 3160 3161 3162 3163 3164 3165 3168 3170 3172 3175 3177 3180 3181 3184 3185 3187 3189 3191 3192 3193 3194 3195 3195 3196 3197 3196 3196 3197 3197 3198 3199 3199 3200 3202 3203 3203 3204 3205 3206
3169 3167 3167 3166 3166 3166 3165 3165 3163 3162 3161 3162 3163 3164 3165 3167 3170 3173 3175 3177 3179 3181 3183 3185 3188 3190 3191 3192 3193 3194 3194 3195 3196 3197 3197 3197 3198 3198 3198 3199 3200 3200 3201 3202 3204 3204 3205 3207 3208
3172 3171 3169 3168 3167 3167 3167 3166 3166 3164 3163 3163 3164 3165 3167 3169 3172 3174 3176 3178 3180 3183 3186 3188 3189 3191 3192 3194 3194 3194 3194 3195 3196 3197 3197 3197 3198 3197 3199 3199 3199 3200 3202 3203 3204 3205 3206 3207 3208
3175 3174 3172 3170 3169 3169 3168 3168 3167 3166 3165 3165 3166 3167 3170 3171 3173 3176 3178 3180 3182 3184 3187 3189 3190 3191 3192 3194 3194 3195 3195 3196 3197 3197 3197 3197 3198 3198 3197 3199 3199 3200 3202 3203 3204 3205 3206 3207 3209
3177 3177 3174 3173 3172 3171 3170 3169 3169 3168 3168 3168 3168 3171 3171 3173 3174 3177 3179 3181 3183 3185 3187 3189 3190 3191 3193 3194 3194 3195 3195 3196 3197 3198 3198 3197 3197 3196 3196 3197 3197 3199 3200 3201 3203 3203 3205 3205 3206
3179 3179 3177 3177 3175 3174 3171 3171 3170 3170 3169 3169 3170 3171 3173 3174 3176 3178 3180 3182 3184 3185 3187 3189 3190 3191 3192 3193 3193 3194 3195 3196 3197 3198 3197 3196 3195 3194 3193 3194 3196 3197 3198 3199 3201 3203 3203 3203 3205
3181 3181 3180 3179 3178 3177 3174 3173 3171 3172 3171 3171 3171 3172 3173 3176 3178 3179 3181 3184 3186 3187 3188 3189 3190 3191 3192 3192 3193 3194 3195 3196 3196 3196 3196 3195 3194 3194 3194 3194 3194 3195 3197 3198 3199 3201 3201 3202 3203
3182 3183 3182 3182 3181 3179 3177 3175 3173 3172 3172 3171 3172 3173 3175 3177 3179 3180 3182 3184 3186 3188 3189 3190 3191 3191 3191 3191 3191 3192 3193 3194 3195 3195 3195 3194 3194 3193 3193 3193 3193 3194 3194 3196 3197 3198 3199 3199 3200
3185 3184 3184 3184 3183 3182 3180 3178 3176 3174 3174 3173 3173 3175 3177 3178 3179 3181 3183 3185 3186 3187 3189 3190 3190 3190 3190 3190 3190 3190 3191 3193 3194 3194 3194 3193 3193 3193 3193 3192 3192 3192 3193 3194 3194 3195 3196 3197 3198
3186 3186 3186 3185 3185 3184 3183 3181 3180 3177 3175 3175 3176 3176 3178 3179 3181 3183 3183 3185 3187 3188 3189 3190 3190 3191 3191 3187 3183 3187 3190 3192 3192 3192 3191 3191 3191 3191 3191 3191 3190 3190 3190 3190 3191 3192 3193 3194 3194
3187 3186 3187 3186 3186 3186 3185 3184 3182 3181 3179 3178 3177 3178 3179 3181 3182 3183 3184 3185 3186 3187 3189 3191 3191 3190 3189 3188 3186 3187 3191 3192 3192 3191 3190 3190 3189 3189 3189 3189 3189 3188 3187 3187 3187 3187 3188 3190 3190
3187 3188 3187 3187 3187 3187 3186 3187 3184 3182 3181 3180 3179 3179 3180 3181 3182 3184 3185 3186 3186 3188 3190 3191 3192 3191 3190 3190 3190 3191 3192 3193 3191 3190 3189 3188 3187 3187 3187 3187 3186 3186 3185 3184 3184 3184 3184 3186 3186
3187 3188 3188 3187 3187 3187 3188 3188 3187 3184 3184 3183 3181 3181 3182 3183 3185 3185 3186 3187 3188 3189 3190 3191 3192 3193 3192 3192 3193 3195 3196 3195 3194 3192 3190 3188 3187 3187 3186 3185 3185 3185 3184 3181 3179 3180 3181 3181 3182
3187 3188 3188 3188 3187 3186 3185 3185 3188 3186 3185 3185 3186 3185 3186 3187 3187 3188 3187 3187 3189 3190 3191 3192 3193 3193 3194 3194 3194 3195 3195 3195 3191 3190 3188 3186 3186 3185 3185 3184 3183 3181 3182 3181 3179 3177 3177 3178 3178
3187 3188 3188 3188 3187 3183 3182 3182 3185 3187 3186 3186 3186 3187 3187 3187 3186 3186 3187 3188 3188 3190 3191 3193 3194 3194 3194 3195 3195 3195 3194 3193 3189 3186 3182 3181 3183 3182 3182 3180 3180 3180 3180 3179 3178 3176 3175 3176 3176
3187 3188 3188 3187 3185 3181 3180 3180 3181 3184 3185 3186 3187 3187 3187 3186 3186 3186 3188 3189 3188 3189 3192 3193 3194 3195 3195 3195 3195 3195 3194 3193 3191 3188 3185 3182 3182 3179 3177 3178 3179 3180 3180 3179 3177 3176 3175 3174 3173
3187 3187 3186 3185 3183 3180 3179 3177 3178 3179 3183 3186 3186 3184 3183 3185 3186 3186 3187 3188 3190 3190 3190 3192 3192 3193 3194 3194 3194 3193 3193 3193 3191 3191 3188 3186 3181 3180 3179 3176 3177 3177 3177 3177 3176 3175 3175 3173 3171
3185 3187 3186 3185 3181 3179 3178 3177 3177 3177 3178 3180 3183 3182 3182 3185 3185 3188 3188 3190 3191 3189 3188 3189 3190 3191 3191 3191 3192 3192 3192 3192 3191 3189 3187 3183 3181 3181 3179 3176 3175 3175 3175 3169 3165 3171 3172 3171 3170
3184 3184 3184 3183 3181 3180 3178 3178 3175 3175 3174 3174 3178 3180 3182 3183 3184 3187 3186 3189 3188 3189 3187 3186 3187 3186 3187 3187 3188 3190 3190 3188 3188 3188 3187 3184 3181 3179 3177 3175 3173 3172 3172 3169 3167 3168 3168 3168 3167
3181 3181 3181 3180 3179 3178 3177 3179 3174 3174 3173 3172 3172 3174 3179 3181 3184 3185 3184 3186 3185 3185 3186 3186 3187 3186 3187 3187 3187 3187 3189 3186 3186 3187 3187 3184 3181 3179 3177 3175 3172 3170 3169 3168 3166 3164 3163 3163 3164
3176 3178 3179 3178 3176 3177 3175 3178 3174 3173 3171 3170 3169 3171 3174 3176 3179 3181 3183 3185 3183 3180 3184 3184 3184 3184 3185 3185 3184 3185 3185 3185 3183 3183 3183 3181 3179 3177 3175 3174 3171 3169 3167 3165 3163 3162 3160 3160 3159
3173 3175 3176 3176 3174 3172 3173 3176 3172 3171 3169 3168 3168 3168 3169 3173 3176 3178 3181 3182 3177 3178 3180 3180 3181 3178 3180 3182 3180 3179 3183 3180 3179 3179 3180 3180 3177 3175 3173 3171 3169 3166 3164 3162 3160 3158 3157 3156 3154
3169 3172 3172 3175 3171 3172 3173 3172 3170 3169 3168 3167 3166 3166 3167 3170 3172 3173 3176 3176 3175 3175 3176 3177 3177 3175 3173 3174 3174 3176 3172 3173 3175 3176 3176 3175 3173 3172 3170 3168 3165 3162 3160 3158 3155 3153 3151 3150 3151
3164 3167 3169 3170 3169 3171 3170 3169 3168 3167 3166 3165 3165 3165 3166 3167 3169 3170 3172 3174 3174 3173 3171 3173 3175 3172 3169 3170 3171 3172 3173 3171 3171 3172 3172 3170 3168 3166 3164 3162 3159 3157 3154 3151 3149 3146 3145 3144 3143
3160 3162 3165 3165 3167 3166 3166 3166 3165 3164 3164 3164 3163 3163 3164 3166 3166 3167 3168 3171 3171 3169 3168 3169 3170 3170 3168 3169 3169 3170 3171 3170 3168 3169 3168 3165 3164 3161 3158 3155 3152 3150 3146 3143 3140 3138 3137 3137 3136
3156 3157 3159 3160 3161 3159 3160 3163 3162 3161 3161 3161 3161 3161 3163 3164 3165 3165 3166 3168 3168 3167 3167 3167 3167 3166 3167 3169 3169 3168 3167 3165 3165 3163 3161 3158 3155 3153 3150 3146 3143 3140 3137 3135 3132 3130 3129 3129 3127
3152 3153 3155 3156 3159 3157 3159 3159 3159 3159 3159 3159 3158 3160 3160 3161 3162 3164 3164 3166 3166 3166 3166 3166 3165 3166 3167 3168 3166 3164 3162 3161 3159 3156 3153 3151 3149 3146 3140 3135 3134 3131 3128 3126 3125 3123 3122 3120 3118
Wind_Speed
15 17 15 14 16 16 17 10 9 11 9 11 15 12 8 7 7 5 20 22 24 22 23 16 17 16 18 19 18 16 16 15 14 15 13 12 11 10 8 7 9 9 10 10 11 10 10 10 9
15 14 16 19 21 20 15 14 7 7 5 8 10 1 5 3 4 20 20 22 23 22 21 17 14 14 16 16 15 13 13 12 12 12 11 9 8 9 8 7 7 8 8 9 9 9 9 9 9
13 15 17 9 19 17 13 14 11 10 7 6 3 4 1 4 15 20 19 21 22 20 14 15 14 13 14 14 13 11 10 9 9 7 6 8 9 8 6 6 6 8 8 7 7 8 8 8 9
15 14 17 18 15 16 16 13 14 11 7 3 4 3 7 15 18 19 19 19 19 17 15 13 12 13 12 12 11 9 7 6 6 4 4 6 7 6 4 5 5 6 7 7 7 7 7 7 8
17 18 16 15 14 12 12 13 12 9 7 6 8 9 15 21 17 17 16 16 16 15 14 12 11 11 10 10 8 8 6 4 3 2 2 2 3 3 3 4 5 6 6 6 6 6 5 5 5
15 15 16 11 13 9 10 12 11 11 7 5 4 12 20 19 18 17 16 15 15 13 11 11 10 9 9 8 7 5 5 4 3 2 1 1 0 3 2 4 6 6 7 7 6 6 5 5 3
9 14 12 13 12 10 7 8 10 12 9 7 7 13 15 18 18 15 14 14 13 13 12 10 8 7 7 6 5 4 3 3 2 1 3 4 4 4 2 5 9 9 9 9 8 6 5 4 4
5 10 10 13 12 11 10 9 6 7 7 7 9 6 7 12 15 14 14 14 13 12 11 9 7 6 5 4 2 2 1 1 2 2 4 7 8 11 9 9 11 11 12 12 10 9 7 7 7
6 7 10 14 13 13 11 9 7 7 6 5 7 3 8 8 10 11 10 10 10 10 10 9 8 6 5 4 2 2 2 3 3 4 6 9 8 9 6 5 12 14 14 14 13 11 11 11 9
4 7 11 15 15 15 15 11 9 7 6 5 6 6 10 7 8 10 8 7 7 7 7 6 6 5 4 4 4 4 4 4 5 6 5 7 7 5 5 4 9 14 15 15 16 15 14 13 12
4 6 8 12 13 16 17 15 11 9 7 10 8 8 11 9 8 10 9 8 8 6 4 3 2 3 5 7 8 8 8 6 6 5 7 8 7 6 7 6 8 12 16 18 18 18 17 16 15
3 3 5 7 9 15 17 17 13 12 10 11 14 12 10 9 8 9 8 8 6 6 5 4 5 4 4 4 10 14 12 7 4 6 6 7 6 6 7 6 7 9 11 17 21 21 20 19 18
3 6 0 3 5 10 15 15 14 13 12 12 14 14 12 13 13 8 10 6 6 6 3 2 2 5 7 7 10 13 10 6 6 5 6 6 6 5 7 9 6 8 10 14 20 22 22 21 21
5 8 5 2 1 2 9 12 13 12 13 13 12 12 13 12 9 7 7 7 7 8 4 4 7 6 9 11 8 11 7 3 3 3 5 6 7 8 9 9 10 10 10 11 14 20 21 21 21
8 8 9 7 5 5 3 7 10 10 10 12 13 13 13 13 12 10 10 10 10 8 6 5 1 4 6 10 11 8 3 1 3 4 4 3 5 6 6 7 7 10 10 14 14 15 17 14 14
8 9 12 9 9 9 7 4 4 8 8 9 15 15 16 16 15 13 12 11 9 8 7 5 4 3 6 9 9 6 5 5 6 7 6 6 7 8 8 7 9 9 9 8 10 17 14 13 15
5 2 10 13 14 14 14 8 1 4 6 7 11 16 16 15 15 13 12 12 10 9 7 7 7 6 6 6 6 5 6 7 8 10 11 11 10 10 9 8 8 8 9 9 9 9 10 12 12
6 4 5 9 12 15 17 18 11 4 5 7 7 10 16 16 15 12 10 11 11 10 9 7 6 6 4 3 3 4 5 9 14 21 19 8 10 13 13 9 8 8 8 7 9 8 7 11 12
6 5 8 10 17 13 15 17 19 14 10 9 9 10 15 15 13 13 9 7 11 10 9 7 5 5 5 3 1 3 5 7 7 16 25 25 17 19 12 10 7 9 11 9 7 8 8 9 12
6 7 9 11 14 14 13 15 14 19 15 9 11 13 13 12 14 11 4 7 10 10 9 6 6 4 3 2 1 1 3 6 10 10 12 11 22 10 12 9 8 8 10 12 11 9 9 8 10
10 7 8 12 16 15 10 12 12 14 17 17 18 16 17 15 17 5 4 8 11 11 10 10 8 6 5 4 3 3 3 6 10 10 5 7 7 8 9 13 12 12 13 27 20 10 12 11 11
13 10 9 12 14 7 7 5 10 8 12 17 20 24 20 18 15 14 7 1 12 18 16 14 13 13 11 10 9 8 6 6 9 11 9 10 8 11 13 12 14 14 13 17 13 13 13 15 12
16 16 11 14 14 7 7 4 8 6 7 7 13 24 23 20 15 19 14 11 18 21 20 16 14 15 14 13 13 12 12 9 10 7 6 9 13 15 14 13 12 12 13 13 13 15 13 16 16
15 15 10 13 3 5 5 9 8 7 9 8 10 16 23 23 22 18 17 7 18 13 21 23 21 19 18 17 16 15 13 16 10 7 8 11 15 16 15 14 15 15 15 15 14 14 12 14 17
15 9 6 4 3 1 4 6 10 12 10 7 6 11 17 18 19 19 14 7 20 14 16 13 21 23 23 28 29 27 19 18 11 8 9 14 16 17 18 19 19 20 20 19 17 17 16 15 15
15 14 8 5 3 1 5 5 6 7 5 3 5 7 8 8 11 16 10 11 15 14 15 13 14 15 18 27 39 22 21 11 10 10 16 19 20 21 22 21 22 23 26 27 26 22 20 19 19
13 12 12 7 4 3 5 9 9 6 7 1 3 5 5 5 5 9 8 10 11 14 17 18 20 17 15 12 22 26 18 11 11 14 21 21 23 27 28 29 27 30 31 31 31 27 23 22 21
12 11 7 7 5 5 4 6 8 10 7 4 5 8 6 6 3 4 6 9 10 12 14 16 16 19 9 15 7 11 17 14 14 19 22 23 26 29 32 33 34 36 36 34 30 26 24 25 24
14 14 8 8 7 5 5 5 8 5 8 7 10 9 9 5 4 5 6 8 3 6 5 6 11 9 5 6 12 15 15 16 20 25 26 28 31 34 36 37 39 36 32 30 28 26 24 26 26
9 13 9 9 7 9 6 9 8 8 13 12 14 13 8 5 5 6 4 4 1 2 3 4 2 4 8 12 12 14 16 19 24 26 29 31 34 37 38 35 33 31 29 28 27 26 26 25 26
Wind_Direction
49 57 58 63 59 63 66 61 52 63 85 117 139 127 107 89 78 123 131 129 134 134 131 121 127 124 126 129 128 130 132 126 117 105 94 91 98 104 115 126 117 124 123 127 126 123 124 120 115
51 64 58 66 60 64 62 65 54 43 60 119 145 3 173 36 44 137 132 130 132 133 133 125 133 127 130 134 132 131 131 127 119 108 79 70 87 98 101 117 127 128 130 133 129 128 123 117 116
53 56 57 60 60 61 60 48 38 55 83 119 147 182 82 122 131 134 131 131 129 134 133 126 135 135 137 140 138 130 125 125 117 114 82 71 61 75 102 108 128 143 151 145 139 137 131 126 125
50 52 57 68 71 65 58 45 38 35 53 63 60 147 140 123 132 131 128 130 130 137 134 136 140 141 142 142 136 129 126 134 128 125 75 72 67 70 109 117 141 151 159 157 157 150 148 147 143
53 60 66 67 74 69 64 53 41 42 54 85 87 118 124 128 133 131 130 131 131 135 139 137 138 137 134 137 142 138 134 137 140 138 78 57 65 53 138 164 165 170 176 183 183 174 177 182 171
46 58 62 61 59 57 62 65 55 53 78 61 59 130 135 133 133 137 140 138 137 136 133 130 128 124 129 140 145 141 142 161 160 153 268 268 171 348 128 204 197 187 195 203 210 198 194 197 200
48 53 52 50 47 37 44 58 51 45 68 80 99 144 142 141 139 145 147 147 145 142 140 132 125 129 136 143 146 155 152 166 161 229 281 272 288 297 275 237 212 203 206 213 221 224 216 224 224
40 44 58 51 34 42 50 37 58 65 66 110 126 151 150 143 137 144 148 146 141 143 143 134 127 125 127 142 174 172 161 194 223 258 275 275 277 283 279 236 216 210 211 217 222 229 234 235 227
37 44 71 60 47 47 55 37 63 85 63 93 145 132 178 157 138 137 135 134 144 150 151 148 148 149 160 171 174 192 238 269 283 281 273 283 297 311 322 257 226 217 217 216 223 227 236 245 248
40 72 78 67 54 42 52 57 74 84 89 107 151 167 168 167 133 132 119 117 134 145 150 158 159 168 182 200 208 222 239 259 274 276 287 313 319 317 321 269 244 229 226 226 228 231 239 246 255
17 35 85 64 52 47 48 50 65 88 103 113 119 143 153 159 143 144 143 146 151 163 154 171 179 187 214 225 220 218 231 249 267 296 316 330 323 316 317 293 248 244 233 232 232 235 239 244 252
315 310 76 73 67 42 46 46 50 69 93 120 120 124 126 143 150 161 150 135 150 149 150 160 177 219 269 272 259 229 219 226 272 297 310 315 310 305 308 305 259 243 242 238 234 237 242 247 254
254 260 175 99 58 51 40 50 48 61 76 94 118 125 130 145 135 127 165 169 158 156 138 135 11 356 327 286 241 211 198 218 275 293 296 288 287 295 296 292 288 265 253 245 234 237 244 248 253
281 250 264 247 290 13 48 49 50 52 69 78 102 128 133 142 152 142 153 157 148 156 154 91 100 53 28 39 86 163 175 282 296 305 284 272 277 293 299 299 284 267 250 246 234 231 238 247 256
252 253 266 266 267 267 37 43 59 59 71 89 103 118 130 134 141 147 145 146 140 150 151 154 51 67 60 66 78 98 106 314 307 308 306 276 269 281 288 298 300 290 283 249 241 244 238 241 246
219 268 257 285 287 275 276 319 84 78 79 101 125 118 120 121 122 127 134 137 139 141 140 141 137 101 90 88 80 57 27 353 320 323 319 306 301 299 296 298 297 300 305 279 274 254 263 244 249
191 283 260 278 305 292 282 275 196 121 103 121 139 134 125 118 119 120 125 130 137 144 148 150 145 125 101 77 75 62 28 337 297 278 268 265 270 275 279 290 296 304 309 309 298 294 251 262 245
172 230 310 340 343 309 290 280 258 248 157 139 156 151 135 129 133 129 133 140 148 155 157 150 145 131 118 99 69 46 5 334 338 349 322 304 259 263 259 255 268 290 305 307 316 305 276 249 261
190 236 311 4 357 325 312 292 280 265 228 188 153 169 155 154 147 143 148 170 158 155 151 145 140 135 124 98 2 5 345 329 345 10 23 28 309 356 274 252 289 293 290 295 299 298 284 260 266
262 297 349 348 356 353 319 303 285 270 263 247 175 166 162 179 165 158 71 225 214 182 166 157 159 169 176 153 128 29 337 312 308 316 333 336 48 359 341 22 311 309 291 282 281 288 288 272 272
274 310 340 348 346 338 330 299 293 283 262 236 211 192 182 178 187 173 337 225 224 199 179 181 195 197 201 219 229 254 290 321 313 303 307 331 326 324 324 302 306 304 304 311 266 269 285 288 289
267 272 313 334 337 323 325 302 292 299 278 257 227 217 203 194 198 170 106 219 250 235 210 196 197 209 213 222 241 268 287 307 323 339 359 354 351 342 346 334 316 307 305 313 313 299 275 277 276
255 264 294 315 312 296 271 247 285 275 311 294 253 235 221 219 204 208 236 316 318 242 227 219 230 245 242 248 252 260 282 288 301 332 333 356 357 354 347 346 341 331 320 305 309 314 300 265 269
240 255 288 301 273 224 238 212 278 276 310 339 264 248 238 235 230 246 250 343 311 249 235 241 245 247 266 270 271 258 262 284 291 318 337 348 347 343 339 342 342 341 336 327 312 299 299 278 270
230 236 247 254 200 267 272 203 256 269 297 346 275 255 245 246 254 266 277 258 283 296 234 265 251 249 250 264 261 268 253 249 268 298 310 317 326 340 331 327 329 329 328 325 316 304 290 279 276
219 217 212 246 224 321 193 235 261 292 291 24 304 258 238 240 268 271 267 246 274 289 258 277 284 287 279 276 264 271 224 237 250 280 296 307 312 318 328 322 316 318 318 317 314 301 288 282 275
215 202 212 215 257 226 210 250 268 311 296 177 253 223 206 218 238 258 246 244 265 275 275 280 281 292 314 276 252 263 263 241 253 290 302 299 308 317 315 320 314 313 310 309 308 300 287 278 277
203 205 191 199 196 234 208 253 255 304 297 254 210 196 201 185 204 244 218 222 250 279 279 272 285 311 316 232 247 260 258 262 269 295 298 298 302 307 310 312 312 310 307 305 302 297 294 280 276
205 201 201 194 204 245 243 239 278 279 277 239 222 210 200 190 176 180 172 175 216 277 280 293 297 319 248 291 278 280 278 278 279 293 303 304 306 307 307 309 309 306 306 305 302 297 290 282 277
230 207 234 223 207 209 234 254 225 285 305 257 231 197 211 212 202 193 171 185 161 174 290 272 321 286 257 274 286 290 292 293 294 300 306 305 303 305 313 315 312 310 310 308 303 297 290 284 280